Temperature
18 18 18 18 18 18 18 18 18 18 18 17 17 17 17 17 17 17 17 17 17 17 17 17 17 17 17 17 17 17 17 17 17 16 16 16 16 16 16 16 16 16 16
18 18 18 18 18 18 18 18 18 18 18 18 18 17 17 17 17 17 17 17 17 17 17 17 17 17 17 17 17 17 17 17 17 16 16 16 16 16 16 16 16 16 16
19 18 18 18 18 18 18 18 18 18 18 18 18 18 18 17 17 17 17 17 17 17 17 17 17 17 17 17 17 17 17 17 17 16 16 16 16 16 16 16 16 16 16
18 18 18 18 18 18 18 18 18 18 18 18 18 18 18 18 17 17 17 17 17 17 17 17 17 17 17 17 17 17 17 17 17 16 16 16 16 16 16 16 16 16 16
18 18 18 18 18 18 18 18 18 18 18 18 18 18 18 18 18 18 17 17 17 17 17 17 17 17 17 17 17 17 16 17 17 16 16 16 16 16 16 16 16 16 16
18 18 18 18 18 18 18 18 18 18 18 18 18 18 18 18 18 18 18 18 17 17 17 17 17 17 17 17 17 17 17 17 17 16 16 16 16 16 16 16 16 16 16
18 18 18 18 18 18 18 18 17 17 18 18 18 18 18 18 18 18 18 18 17 17 17 17 17 17 17 17 17 17 17 17 17 16 16 16 16 16 16 16 16 16 16
18 18 18 18 18 18 18 17 17 17 18 18 18 19 19 19 18 18 18 18 17 17 17 17 17 17 16 16 16 17 17 17 17 16 16 16 16 17 16 16 16 16 16
18 18 18 18 18 17 18 17 17 17 18 18 18 18 19 20 19 19 18 18 17 17 17 17 17 17 16 16 16 16 17 17 17 16 16 16 16 16 16 16 16 16 16
18 18 18 18 18 17 18 17 17 17 17 17 18 17 18 18 18 19 18 18 17 17 17 17 17 17 17 16 17 17 17 17 16 16 16 16 16 16 16 16 16 16 16
18 18 18 18 18 17 17 17 17 17 17 17 17 17 17 17 18 18 18 18 18 18 17 17 17 17 17 17 16 17 17 17 16 16 16 16 16 16 16 16 16 16 16
18 18 18 18 17 17 17 17 17 17 17 17 17 17 17 17 18 18 18 18 18 17 17 17 17 17 17 17 16 17 17 17 17 16 16 16 16 16 16 16 16 16 16
18 18 18 17 17 17 17 17 17 17 17 17 17 17 17 17 17 17 17 18 17 17 17 17 17 17 17 16 16 17 17 17 16 16 16 16 16 16 16 16 16 16 15
18 18 18 17 17 17 17 17 17 17 17 17 17 17 17 17 17 17 17 17 18 18 17 17 17 17 16 16 16 16 16 16 16 16 16 16 16 16 16 16 16 15 15
18 18 17 17 17 17 17 17 17 17 17 17 16 16 16 17 17 17 17 17 17 18 17 17 17 17 16 16 16 16 16 16 16 16 16 16 16 16 16 16 15 15 15
18 17 17 17 17 17 17 17 17 17 17 17 16 16 16 16 17 16 16 16 17 17 17 17 16 16 16 16 16 16 16 16 16 16 16 16 16 16 15 15 15 15 15
18 17 17 17 17 17 17 17 16 16 16 16 16 16 16 16 16 16 16 16 16 16 16 16 16 16 15 15 15 15 15 15 15 15 16 16 15 15 15 15 15 15 15
17 17 17 17 16 16 16 16 16 16 16 16 16 16 15 16 16 16 16 16 16 16 16 16 16 16 15 15 15 15 15 15 15 15 15 15 15 15 15 15 15 15 15
17 17 17 16 16 16 16 16 16 16 16 15 15 15 15 15 15 15 15 15 15 16 15 16 16 15 15 15 15 15 15 14 14 15 15 15 15 15 14 14 14 14 14
17 17 16 16 16 16 16 16 16 15 15 15 15 15 15 15 15 15 15 15 15 15 15 15 15 15 15 15 14 14 14 14 14 14 14 14 14 14 14 14 14 14 14
16 16 16 16 16 16 16 16 16 15 15 15 15 15 15 15 15 15 15 15 15 15 15 15 15 15 15 14 14 14 14 14 14 14 14 14 14 14 14 14 14 14 14
17 16 16 16 16 16 16 16 15 15 15 15 15 15 15 15 15 15 15 15 14 14 14 14 15 14 14 14 14 14 14 14 14 14 13 13 13 13 13 13 13 14 13
16 16 16 15 15 15 15 15 15 15 15 15 14 14 14 14 14 14 14 14 14 14 14 14 14 14 14 14 13 13 13 13 13 13 13 13 13 13 13 13 13 13 13
16 16 16 15 15 15 15 15 15 15 14 14 14 14 14 14 14 14 14 13 13 14 14 14 13 13 13 13 13 13 13 13 13 13 13 13 13 12 12 12 12 12 12
16 15 15 15 15 15 15 15 14 14 14 14 14 14 14 14 14 13 13 13 13 13 13 13 13 13 13 13 13 13 12 13 13 13 12 12 12 12 12 12 12 12 12
15 15 15 15 15 15 14 14 14 14 14 14 14 14 14 13 13 13 13 13 13 13 13 13 13 12 12 12 12 12 12 12 12 12 12 12 12 12 12 12 12 12 12
Wind_Speed
2 2 2 2 2 2 2 2 1 1 1 2 2 2 2 2 2 2 4 6 6 6 6 6 6 7 8 9 9 9 9 9 9 9 9 9 9 10 10 11 11 11 11
2 2 2 2 2 2 1 1 2 2 2 1 2 2 3 3 3 3 3 5 8 7 7 6 6 7 8 9 10 9 9 10 10 10 9 10 10 11 11 11 11 11 11
2 2 2 2 2 2 1 1 1 1 2 2 2 2 3 3 3 3 3 2 4 8 8 6 6 6 7 9 9 10 10 10 10 10 10 11 11 12 12 12 11 12 12
2 1 1 1 1 1 1 1 1 1 1 1 1 1 2 2 3 3 2 2 2 2 7 8 6 6 6 7 9 9 9 10 11 11 11 11 12 12 12 12 12 12 12
2 1 1 1 1 1 0 1 1 1 1 1 2 2 3 3 3 3 2 2 2 2 3 7 8 7 7 8 8 8 9 9 10 11 11 11 12 12 13 13 12 13 13
1 1 2 1 1 0 0 1 0 1 1 2 3 2 3 3 3 2 3 2 2 3 2 3 5 7 9 9 9 9 9 10 10 10 10 10 11 11 12 13 13 13 13
1 1 0 1 1 0 1 1 1 2 2 1 3 2 2 3 3 3 3 2 2 2 3 3 4 3 6 10 10 9 8 9 9 10 10 10 11 11 12 13 13 13 14
1 2 1 1 1 1 2 1 2 2 1 1 3 3 2 3 3 2 2 2 2 2 3 3 3 3 4 4 6 8 8 8 9 9 9 9 10 11 12 13 13 13 13
1 1 1 1 1 2 1 2 2 3 2 2 2 3 2 1 1 2 2 2 2 2 2 2 3 3 4 3 3 6 7 7 8 8 9 9 10 11 11 13 14 14 14
1 1 1 1 2 2 2 3 2 2 3 3 2 2 3 3 3 1 1 1 1 2 2 2 2 2 3 4 3 3 5 6 7 8 9 9 9 10 11 12 12 13 13
1 1 1 2 2 2 2 3 2 3 3 3 3 2 3 3 4 4 2 2 2 1 1 2 2 2 2 3 3 2 5 5 6 6 6 7 8 8 9 11 12 12 12
1 1 2 2 2 2 2 3 3 3 3 3 4 3 3 3 3 3 4 4 3 2 1 2 2 2 2 2 1 3 3 4 5 5 6 6 6 7 8 9 10 11 11
1 1 1 2 2 2 2 3 3 3 3 3 4 4 4 4 3 4 4 4 4 3 2 2 2 2 2 1 0 3 3 4 4 4 5 5 5 6 7 7 8 9 10
1 1 2 2 2 2 3 3 3 3 3 4 4 4 4 4 4 4 5 5 4 4 3 2 2 2 2 1 0 2 2 4 4 4 4 5 5 5 6 6 7 8 9
1 1 2 2 2 2 2 3 2 3 3 4 4 4 4 4 4 4 5 5 5 5 4 3 3 2 2 1 1 3 2 3 4 4 4 4 5 5 6 6 6 8 8
1 2 2 2 2 2 2 3 3 2 3 3 3 4 4 4 4 4 4 5 5 6 5 3 3 2 2 2 2 3 2 3 4 4 4 4 5 5 6 6 7 7 7
2 2 2 2 2 2 2 3 3 2 3 3 3 3 4 5 4 4 4 5 5 5 5 4 3 2 3 4 3 3 3 3 3 5 4 4 4 5 5 6 6 7 7
3 3 3 3 3 3 2 3 3 3 3 4 4 4 4 4 4 5 4 5 4 4 5 5 4 3 4 3 3 4 3 3 2 4 5 4 3 4 5 6 6 7 7
3 3 3 3 3 3 3 3 3 4 4 4 4 4 5 4 5 4 5 5 5 4 4 5 4 3 3 2 3 3 3 2 3 4 6 6 4 4 4 5 6 6 7
3 3 3 3 3 3 3 3 3 4 4 4 4 4 4 4 5 5 5 5 5 5 5 5 4 3 2 2 3 2 2 2 3 2 2 3 5 6 4 3 4 5 6
4 3 3 3 3 3 2 2 3 3 4 4 4 4 4 4 5 5 5 5 5 5 5 4 4 3 2 2 3 3 2 3 3 2 2 2 3 2 3 4 4 3 5
4 4 4 4 4 3 2 2 4 4 4 4 5 5 4 3 3 4 4 5 6 5 5 5 4 4 3 3 3 3 3 3 3 2 3 3 2 2 2 1 3 3 3
4 4 4 4 4 2 1 2 4 5 5 4 5 5 5 3 3 4 4 5 5 5 6 6 5 5 4 3 4 5 4 4 4 3 3 3 2 2 2 2 6 5 4
4 4 5 5 4 3 2 2 3 5 4 4 5 5 5 5 4 4 5 4 4 4 4 5 4 4 3 3 3 5 4 4 4 3 3 4 3 2 2 1 5 5 5
4 4 4 4 4 3 2 2 3 4 4 4 4 4 5 5 2 4 4 4 4 3 1 1 2 1 1 1 2 2 2 3 3 2 2 3 3 3 3 2 4 6 6
4 5 4 4 4 4 2 2 3 4 3 4 4 4 2 2 1 2 3 3 3 3 3 2 1 1 2 3 4 3 3 3 3 2 1 3 3 3 3 3 2 4 5
Wind_Direction
118 111 107 113 118 123 140 142 143 154 183 199 205 188 182 179 181 185 162 174 197 211 220 219 218 216 216 211 210 212 214 216 216 217 218 218 217 213 211 213 211 210 210
108 108 115 109 103 110 105 146 152 174 195 194 205 190 200 196 180 208 199 183 193 203 214 218 219 222 222 214 212 214 217 220 220 219 220 221 219 215 215 215 213 211 209
118 134 114 112 96 110 138 169 171 187 198 186 192 202 203 207 203 213 223 218 195 193 194 199 208 215 214 211 212 215 218 221 225 223 219 221 221 219 219 220 217 216 214
145 158 123 119 125 149 164 175 212 215 206 223 206 230 222 206 212 221 218 221 231 202 183 184 196 205 212 217 219 220 222 224 226 224 222 222 222 221 222 221 221 219 217
142 165 135 103 161 159 260 272 104 273 249 260 240 217 232 221 217 215 218 228 214 218 200 176 190 205 215 221 223 223 226 228 229 227 227 226 223 223 221 219 220 219 217
139 160 152 147 197 192 215 20 327 293 284 279 282 261 235 222 221 221 230 223 208 213 208 201 196 198 205 215 223 228 229 228 229 230 229 226 223 222 221 218 219 222 222
154 203 211 153 233 246 267 251 268 237 247 275 277 257 221 212 212 215 229 243 217 217 217 218 223 211 198 205 215 224 231 228 227 229 230 230 229 226 223 220 220 224 224
213 194 201 249 243 235 241 258 262 282 278 261 287 289 248 197 191 205 218 225 248 231 223 215 206 215 235 212 190 209 224 230 227 230 232 231 232 231 227 225 224 226 226
206 239 229 268 281 268 265 260 250 250 271 274 281 289 297 300 299 178 202 223 235 242 242 233 224 220 230 232 214 197 215 229 226 230 234 232 231 229 227 225 224 225 226
218 229 235 238 262 276 280 266 251 263 264 277 266 274 295 314 289 267 205 195 230 237 250 260 250 232 236 236 220 209 204 222 227 230 233 230 229 224 225 225 224 225 225
217 237 233 237 238 254 271 282 287 272 266 275 280 275 271 262 258 271 275 270 244 239 249 267 276 263 250 244 232 190 187 213 224 227 229 229 228 226 224 222 222 222 221
212 215 232 249 251 259 263 262 266 252 269 284 286 279 270 273 271 268 268 263 262 257 247 265 274 260 252 256 240 105 177 211 222 227 230 233 233 228 225 221 220 219 219
234 218 259 261 269 262 264 266 257 272 259 260 268 273 273 275 275 271 268 269 268 264 253 246 268 274 259 252 212 127 182 195 209 218 225 226 230 229 226 221 218 216 217
250 222 243 255 271 275 270 261 259 259 264 265 269 271 267 270 273 268 268 272 271 264 257 267 279 270 269 256 83 202 195 180 202 217 223 226 227 225 219 214 214 214 215
232 216 237 252 268 267 270 269 269 272 276 269 267 256 259 268 267 272 269 266 269 271 267 255 255 248 255 258 215 242 236 166 190 206 214 217 219 221 215 212 214 213 215
239 233 242 256 264 261 261 264 261 269 273 276 278 283 278 275 275 268 267 271 269 269 273 278 275 283 290 280 242 260 242 175 179 194 206 215 216 217 214 212 214 212 212
220 227 240 252 260 267 265 263 269 267 275 287 286 277 276 285 284 277 270 269 265 260 261 272 280 286 279 277 277 265 251 240 198 171 185 205 213 218 218 216 215 213 211
227 227 234 242 252 261 259 257 271 284 281 287 288 288 286 279 278 277 277 271 270 261 257 262 272 275 264 264 264 261 256 247 238 160 173 189 207 217 220 219 216 215 211
232 234 232 242 257 267 265 263 273 280 279 285 288 287 290 290 285 287 282 279 275 264 261 258 262 262 265 266 260 259 259 255 248 180 176 186 196 208 219 223 220 217 210
227 235 240 245 253 262 268 274 272 274 281 288 292 291 291 289 286 287 281 278 277 273 262 259 262 258 255 259 260 259 265 262 263 245 221 195 183 194 202 210 220 214 206
228 230 240 244 253 255 265 284 280 284 287 283 284 288 290 297 312 298 294 292 281 273 268 263 264 270 274 273 273 266 267 269 251 261 257 232 194 203 196 194 191 206 205
232 233 239 246 253 267 45 347 296 287 281 281 285 285 278 270 277 266 283 296 293 279 278 274 265 268 271 272 281 273 275 273 264 262 268 259 242 240 221 187 128 149 185
231 236 241 245 251 260 180 264 284 281 277 278 280 282 284 289 278 285 266 245 255 261 269 272 276 280 275 273 269 262 262 271 277 279 271 264 254 246 229 124 131 156 172
235 238 242 245 252 253 182 241 277 267 274 274 273 272 276 285 291 297 288 285 287 285 269 256 270 284 298 295 264 257 256 253 243 238 255 260 256 258 256 178 152 166 176
236 243 244 243 246 247 181 215 264 265 266 273 275 274 276 280 334 322 287 285 287 281 260 245 273 286 321 293 279 268 262 258 258 241 245 262 267 269 257 237 179 176 185
235 241 242 243 246 252 179 183 250 262 269 275 270 267 272 292 38 328 287 282 283 294 306 318 314 231 233 220 220 255 269 267 265 263 254 261 260 266 259 240 220 202 202
Height
1536 1536 1536 1536 1537 1537 1538 1537 1538 1538 1538 1538 1539 1539 1539 1539 1540 1541 1540 1539 1539 1539 1539 1540 1540 1541 1541 1542 1543 1543 1544 1545 1546 1547 1547 1548 1549 1550 1551 1552 1553 1554 1556
1536 1537 1537 1537 1537 1538 1538 1538 1538 1538 1538 1538 1539 1538 1539 1539 1539 1539 1539 1539 1538 1538 1538 1538 1538 1539 1539 1540 1541 1541 1542 1543 1544 1544 1545 1546 1546 1548 1548 1550 1551 1552 1553
1537 1537 1537 1537 1538 1538 1538 1538 1538 1538 1538 1538 1538 1538 1538 1538 1539 1538 1539 1539 1538 1537 1536 1537 1537 1537 1537 1538 1539 1539 1540 1541 1541 1542 1543 1543 1544 1545 1546 1547 1548 1549 1551
1537 1537 1538 1538 1538 1538 1538 1538 1538 1538 1538 1538 1538 1538 1538 1537 1538 1538 1538 1538 1538 1537 1536 1536 1536 1536 1536 1536 1537 1537 1538 1538 1539 1539 1540 1540 1541 1542 1543 1544 1545 1546 1548
1537 1537 1537 1537 1538 1538 1538 1538 1538 1538 1538 1538 1538 1537 1537 1537 1537 1537 1537 1537 1536 1536 1536 1535 1534 1534 1534 1535 1535 1535 1535 1536 1536 1537 1537 1537 1538 1539 1540 1541 1542 1543 1544
1537 1537 1538 1537 1538 1538 1538 1537 1537 1537 1537 1537 1537 1537 1536 1536 1536 1536 1536 1536 1535 1535 1535 1534 1534 1534 1533 1533 1533 1533 1533 1534 1534 1534 1534 1534 1535 1536 1536 1537 1538 1540 1541
1537 1537 1537 1537 1537 1537 1537 1537 1537 1537 1537 1536 1537 1536 1536 1535 1535 1535 1535 1535 1535 1534 1534 1533 1534 1533 1533 1532 1532 1531 1531 1531 1531 1531 1531 1532 1532 1532 1533 1534 1535 1536 1537
1536 1537 1536 1537 1537 1536 1536 1536 1536 1536 1537 1536 1536 1535 1535 1535 1534 1534 1534 1534 1533 1533 1533 1533 1532 1531 1531 1531 1530 1530 1529 1529 1529 1529 1529 1529 1529 1529 1530 1531 1532 1533 1534
1536 1536 1535 1536 1535 1536 1536 1535 1535 1535 1535 1535 1535 1535 1534 1533 1533 1533 1532 1532 1532 1532 1532 1532 1531 1530 1530 1529 1529 1528 1527 1527 1526 1526 1526 1526 1526 1526 1527 1527 1528 1529 1530
1534 1534 1534 1534 1534 1535 1534 1534 1535 1534 1534 1534 1534 1533 1534 1533 1533 1532 1532 1531 1531 1530 1530 1530 1529 1529 1528 1527 1526 1525 1525 1524 1524 1523 1523 1523 1523 1523 1523 1524 1525 1526 1527
1533 1533 1533 1533 1533 1533 1533 1533 1533 1533 1533 1533 1533 1532 1532 1531 1531 1531 1530 1530 1530 1529 1528 1528 1528 1527 1526 1525 1524 1523 1522 1522 1521 1521 1521 1520 1520 1520 1520 1521 1522 1522 1524
1532 1532 1532 1532 1532 1532 1531 1531 1531 1531 1531 1531 1531 1531 1531 1530 1530 1529 1528 1528 1528 1527 1526 1526 1526 1525 1524 1524 1523 1521 1520 1519 1519 1518 1518 1518 1518 1517 1518 1518 1518 1519 1520
1532 1531 1531 1531 1531 1530 1530 1530 1529 1529 1529 1529 1528 1529 1529 1528 1528 1527 1527 1526 1526 1525 1524 1524 1523 1523 1522 1521 1520 1518 1517 1517 1516 1516 1515 1515 1514 1514 1514 1515 1515 1516 1517
1530 1530 1529 1529 1529 1529 1529 1528 1528 1528 1527 1527 1527 1526 1526 1526 1526 1525 1525 1524 1523 1523 1522 1521 1521 1520 1519 1519 1517 1516 1515 1514 1513 1513 1512 1512 1511 1511 1511 1511 1512 1513 1514
1529 1528 1528 1528 1527 1527 1527 1526 1526 1525 1525 1525 1525 1524 1524 1524 1523 1523 1522 1522 1522 1520 1519 1518 1518 1518 1517 1516 1515 1514 1512 1511 1511 1510 1509 1509 1508 1508 1508 1508 1509 1509 1510
1526 1527 1526 1526 1526 1525 1525 1524 1524 1523 1523 1522 1522 1521 1521 1521 1521 1520 1519 1519 1518 1518 1516 1516 1515 1515 1514 1514 1512 1511 1510 1509 1508 1507 1506 1506 1505 1505 1505 1505 1506 1506 1507
1525 1525 1524 1524 1524 1524 1523 1522 1522 1521 1521 1520 1520 1519 1518 1517 1517 1517 1516 1516 1515 1515 1513 1513 1513 1512 1511 1510 1509 1508 1508 1506 1505 1504 1503 1503 1502 1502 1502 1502 1502 1503 1504
1523 1523 1523 1522 1522 1522 1521 1521 1520 1520 1519 1518 1517 1517 1516 1515 1514 1514 1513 1512 1512 1511 1511 1509 1509 1509 1508 1507 1506 1505 1505 1504 1503 1501 1500 1500 1499 1498 1498 1499 1499 1499 1500
1521 1521 1521 1520 1520 1520 1519 1518 1518 1517 1517 1516 1515 1514 1513 1512 1512 1511 1510 1510 1509 1509 1508 1507 1506 1505 1505 1504 1503 1502 1502 1501 1500 1499 1498 1497 1496 1496 1495 1495 1496 1496 1496
1519 1519 1519 1518 1518 1517 1517 1516 1516 1515 1514 1513 1512 1511 1511 1510 1509 1508 1507 1506 1506 1505 1504 1504 1503 1502 1502 1501 1500 1500 1499 1498 1498 1497 1495 1494 1493 1493 1493 1492 1492 1493 1493
1517 1516 1516 1516 1515 1515 1515 1514 1513 1513 1511 1510 1509 1509 1508 1507 1506 1505 1505 1504 1503 1502 1501 1501 1500 1499 1499 1498 1497 1497 1496 1495 1495 1494 1493 1493 1491 1490 1490 1489 1489 1490 1490
1514 1514 1513 1513 1513 1513 1512 1511 1510 1510 1509 1508 1507 1506 1505 1503 1502 1501 1501 1500 1499 1498 1498 1497 1497 1496 1495 1495 1494 1494 1493 1493 1492 1492 1491 1490 1490 1489 1488 1488 1486 1487 1486
1511 1510 1510 1510 1510 1509 1509 1508 1507 1506 1506 1505 1504 1503 1502 1501 1499 1498 1497 1496 1496 1495 1494 1494 1493 1492 1492 1491 1491 1490 1490 1489 1488 1488 1488 1487 1487 1486 1486 1485 1484 1483 1483
1508 1507 1507 1507 1507 1506 1505 1505 1504 1503 1502 1501 1500 1499 1498 1497 1496 1495 1494 1493 1492 1491 1490 1490 1489 1489 1489 1487 1487 1487 1486 1486 1485 1485 1485 1485 1485 1485 1484 1483 1481 1481 1480
1504 1504 1504 1504 1503 1503 1502 1502 1501 1500 1499 1498 1497 1496 1495 1494 1492 1491 1491 1489 1488 1487 1486 1486 1486 1485 1484 1484 1484 1484 1483 1483 1483 1482 1482 1483 1482 1482 1481 1480 1479 1478 1478
1501 1501 1501 1500 1500 1500 1499 1498 1498 1497 1496 1495 1494 1493 1492 1491 1489 1488 1487 1486 1485 1484 1483 1483 1483 1482 1482 1481 1481 1480 1481 1481 1480 1480 1479 1480 1479 1479 1479 1478 1478 1476 1476